Home   Weather   Ørsta   Past weeks

Flag for Norway Past Weather in Ørsta, Norway — Yesterday and Last 2 Weeks

Now
55 °F

Partly cloudy.


Feels Like: 50 °F
Forecast: 52 / 60 °F
Wind: 24 mph from Southwest

Location: Alesund / Vigra

Current Time: Sep 1, 2016 at 3:51:41 AM

Latest Report: Sep 1, 2016 at 3:20 AM


Visibility: N/A

Pressure: 29.65 "Hg

Humidity: 88%

Dew Point: 52 °F

Location of ØrstaLocation

Past Weather in Ørsta — Graph

°F

Ørsta Temperature Yesterday

Maximum temperature yesterday: 68 °F (at 11:20 AM)
Minimum temperature yesterday: 55 °F (at 5:50 PM)
Average temperature yesterday: 62 °F

High & Low Weather Summary for the Past Weeks

 TemperatureHumidityPressure
High68 °F (Aug 17, 12:50 PM)100% (Aug 17, 10:50 PM)30.24 "Hg (Aug 17, 10:50 PM)
Low45 °F (Aug 28, 1:50 AM)60% (Aug 31, 6:50 AM)29.53 "Hg (Aug 26, 2:20 PM)
Average58 °F86%29.94 "Hg
* Reported Aug 17 2:20 AM — Sep 1 2:20 AM, Ørsta, Weather by CustomWeather, © 2016

Note: Actual official high and low records may vary slightly from our data, if they occured in-between our weather recording intervals... More about our weather records

Advertising

Ørsta Weather History for the Previous 24 Hours

Scroll right to see more
 ConditionsComfort  
Time TempWeatherWind HumidityBarometerVisibility
2:20 AM
Thu, Sep 1
55 °FRain. Partly cloudy.21 mph94%29.65 "Hg6 mi
1:50 AM55 °FMostly cloudy.21 mph88%29.65 "HgN/A
1:20 AM55 °FPartly cloudy.23 mph88%29.65 "Hg4 mi
12:50 AM57 °FMostly cloudy.22 mph77%29.65 "HgN/A
12:20 AM59 °FOvercast.23 mph72%29.65 "HgN/A
11:50 PM
Wed, Aug 31
59 °FMostly cloudy.22 mph72%29.65 "HgN/A
11:20 PM57 °FPassing clouds.22 mph77%29.65 "HgN/A
10:20 PM57 °FScattered showers. Partly cloudy.22 mph82%29.65 "HgN/A
9:50 PM57 °FSprinkles. Partly cloudy.21 mph88%29.65 "HgN/A
9:20 PM59 °FSprinkles. Broken clouds.18 mph77%29.65 "HgN/A
8:50 PM59 °FSprinkles. Broken clouds.23 mph77%29.65 "HgN/A
8:20 PM59 °FPartly sunny.20 mph77%29.65 "HgN/A
7:50 PM59 °FScattered clouds.21 mph77%29.65 "HgN/A
7:20 PM57 °FBroken clouds.20 mph88%29.65 "HgN/A
6:50 PM57 °FLight rain. Broken clouds.21 mph94%29.65 "HgN/A
6:20 PM57 °FRain. Broken clouds.18 mph94%29.65 "Hg4 mi
5:50 PM55 °FHeavy rain. Fog.17 mph94%29.65 "Hg2 mi
5:20 PM59 °FRain. Partly sunny.8 mph94%29.62 "Hg4 mi
4:50 PM59 °FRain. Broken clouds.16 mph94%29.65 "Hg4 mi
4:20 PM59 °FLight rain. Broken clouds.13 mph94%29.65 "Hg6 mi
3:50 PM61 °FLight rain. Broken clouds.13 mph88%29.65 "HgN/A
3:20 PM61 °FLight rain. Broken clouds.12 mph88%29.65 "HgN/A
2:50 PM63 °FLight rain. Broken clouds.15 mph77%29.65 "HgN/A
2:20 PM64 °FPartly sunny.15 mph73%29.65 "HgN/A
1:50 PM66 °FPartly sunny.17 mph64%29.65 "HgN/A
1:20 PM66 °FPartly sunny.20 mph64%29.65 "HgN/A
12:50 PM66 °FPartly sunny.20 mph64%29.65 "HgN/A
12:20 PM66 °FPartly sunny.18 mph64%29.65 "HgN/A
11:50 AM66 °FPartly sunny.18 mph64%29.68 "HgN/A
11:20 AM68 °FPartly sunny.20 mph60%29.68 "HgN/A
10:50 AM66 °FPartly sunny.17 mph64%29.68 "HgN/A
10:20 AM66 °FPartly sunny.20 mph64%29.68 "HgN/A
9:50 AM66 °FPartly sunny.16 mph64%29.71 "HgN/A
9:20 AM66 °FPartly sunny.13 mph60%29.71 "HgN/A
8:50 AM66 °FPartly sunny.15 mph60%29.71 "HgN/A
8:20 AM64 °FScattered clouds.12 mph64%29.71 "HgN/A
7:50 AM64 °FPassing clouds.15 mph60%29.74 "HgN/A
7:20 AM64 °FPassing clouds.18 mph60%29.74 "HgN/A
6:50 AM64 °FPassing clouds.14 mph60%29.74 "HgN/A
5:50 AM63 °FPassing clouds.16 mph73%29.74 "HgN/A
5:20 AM63 °FMild.12 mph73%29.77 "HgN/A
4:50 AM61 °FPassing clouds.8 mph77%29.77 "HgN/A
4:20 AM63 °FMostly cloudy.8 mph73%29.80 "HgN/A
3:50 AM61 °FOvercast.13 mph83%29.80 "HgN/A
3:20 AM61 °FMostly cloudy.13 mph77%29.83 "HgN/A
Weather by CustomWeather, © 2016

See weather overviewHow to use our weather pages